カタログに戻る

GEESAT 4-02

運用中科学LEO
NORAD 65120·PAYLOAD·🇨🇳 China

打ち上げ Aug 8, 2025 から Yellow Sea Launch Area

Loading…

次のパス (今後24時間)

TLE

最新Source: Space-Track

元期: Sep 14, 2026, 15:15 UTC

1 65120U 25170B   26257.63572575  .00001148  00000-0  16260-3 0  9993
2 65120  49.9851 119.3166 0009682  72.1727 288.0267 14.84264953 59744

AllMySatでGEESAT 4-02をリアルタイム追跡

Download on the App Store